New Philadelphia, OH

11:26 AM EDT on August 22, 2017 (GMT -0400)
Clever

Weather History for KPHD - July, 2014

Change the Weather History Date:

Tuesday, July 29, 2014

  Actual Average Record
Temperature  
Mean Temperature 60 °F 72 °F  
Max Temperature 69 °F 84 °F 94 °F (1964)
Min Temperature 50 °F 62 °F 49 °F (1965)
Degree Days  
Heating Degree Days 5 0  
Month to date heating degree days 17 0  
Since 1 June heating degree days 27 35  
Since 1 July heating degree days 17 0  
Cooling Degree Days 0 8  
Month to date cooling degree days 149 223  
Year to date cooling degree days 392 409  
Since 1 June cooling degree days 326 366  
Growing Degree Days 10 (Base 50)    
Moisture  
Dew Point 52 °F    
Average Humidity 75    
Maximum Humidity 96    
Minimum Humidity 53    
Precipitation  
Precipitation 0.00 in 0.15 in 2.40 in (2009)
Month to date precipitation 4.62 3.73  
Year to date precipitation 24.67 23.06  
Sea Level Pressure  
Sea Level Pressure 30.01 in    
Wind  
Wind Speed 4 mph (WNW)    
Max Wind Speed 12 mph    
Max Gust Speed 14 mph    
Visibility 10 miles    
Events      
T = Trace of Precipitation, MM = Missing Value Source: NWS Daily Summary

Daily Weather History Graph

Daily Weather History Graph

Search for Another Location

Airport or City:

Trip Planner

Search our weather history database for the weather conditions in past years. The results will help you decide how hot, cold, wet, or windy it might be!

Date:

Astronomy

Jul. 29, 2014 Rise Set
Actual Time 6:20 AM EDT 8:43 PM EDT
Civil Twilight 5:49 AM EDT 9:14 PM EDT
Nautical Twilight 5:11 AM EDT 9:52 PM EDT
Astronomical Twilight 4:28 AM EDT 10:34 PM EDT
Moon 8:56 AM EDT (7/29) 9:54 PM EDT (7/29)
Length of Visible Light 15h 25m
Length of Day
14h 23m
Waxing Crescent, 7% of the Moon is Illuminated
Jul 29
Waxing Crescent
Aug 3
First Quarter
Aug 10
Full
Aug 17
Last Quarter
Aug 25
New

Hourly Weather History & Observations

Time (EDT) Temp. Dew Point Humidity Pressure Visibility Wind Dir Wind Speed Gust Speed Precip Events Conditions
12:29 AM 57.9 °F 55.0 °F 90% 29.97 in 10.0 mi Calm Calm - N/A   Overcast
12:49 AM 57.2 °F 53.6 °F 88% 29.98 in 10.0 mi NNW 3.5 mph - N/A   Overcast
12:53 AM 57.9 °F 53.1 °F 84% 29.97 in 10.0 mi NNW 3.5 mph - N/A   Overcast
1:05 AM 57.9 °F 54.0 °F 87% 29.98 in 10.0 mi North 3.5 mph - N/A   Overcast
1:41 AM 57.9 °F 53.1 °F 84% 29.98 in 10.0 mi Calm Calm - N/A   Overcast
1:53 AM 57.9 °F 54.0 °F 87% 29.98 in 10.0 mi Calm Calm - N/A   Overcast
2:53 AM 55.9 °F 53.1 °F 90% 29.97 in 10.0 mi Calm Calm - N/A   Scattered Clouds
3:53 AM 54.0 °F 52.0 °F 93% 29.98 in 10.0 mi Calm Calm - N/A   Mostly Cloudy
4:53 AM 53.1 °F 52.0 °F 96% 29.97 in 10.0 mi Calm Calm - N/A   Scattered Clouds
5:53 AM 51.1 °F 50.0 °F 96% 29.98 in 2.0 mi Calm Calm - N/A   Clear
6:08 AM 52.0 °F 51.1 °F 97% 29.98 in 8.0 mi Calm Calm - N/A   Mostly Cloudy
6:44 AM 50.0 °F 48.9 °F 96% 29.99 in 8.0 mi Calm Calm - N/A   Partly Cloudy
6:53 AM 51.1 °F 48.9 °F 92% 29.99 in 7.0 mi Calm Calm - N/A   Partly Cloudy
7:53 AM 54.0 °F 52.0 °F 93% 30.01 in 10.0 mi Calm Calm - N/A   Clear
8:53 AM 57.9 °F 52.0 °F 81% 30.02 in 10.0 mi West 3.5 mph - N/A   Clear
10:53 AM 62.1 °F 52.0 °F 70% 30.04 in 10.0 mi Variable 4.6 mph - N/A   Mostly Cloudy
11:53 AM 63.0 °F 52.0 °F 67% 30.04 in 10.0 mi WNW 6.9 mph - N/A   Overcast
12:53 PM 64.0 °F 52.0 °F 65% 30.04 in 10.0 mi NW 8.1 mph - N/A   Overcast
1:53 PM 66.0 °F 52.0 °F 60% 30.03 in 10.0 mi WNW 8.1 mph - N/A   Overcast
2:53 PM 66.0 °F 52.0 °F 60% 30.02 in 10.0 mi West 4.6 mph - N/A   Overcast
3:53 PM 69.1 °F 51.1 °F 53% 30.02 in 10.0 mi WNW 8.1 mph - N/A   Partly Cloudy
4:53 PM 68.0 °F 51.1 °F 55% 30.02 in 10.0 mi West 8.1 mph - N/A   Partly Cloudy
5:53 PM 66.9 °F 51.1 °F 57% 30.03 in 10.0 mi Variable 3.5 mph - N/A   Clear
6:53 PM 66.9 °F 51.1 °F 57% 30.03 in 10.0 mi SW 4.6 mph - N/A   Clear
7:53 PM 64.9 °F 52.0 °F 63% 30.04 in 10.0 mi SW 3.5 mph - N/A   Clear
8:53 PM 60.1 °F 54.0 °F 80% 30.04 in 10.0 mi Calm Calm - N/A   Clear
9:53 PM 57.0 °F 53.1 °F 87% 30.04 in 10.0 mi SE 3.5 mph - N/A   Clear
10:53 PM 55.9 °F 54.0 °F 93% 30.05 in 10.0 mi ESE 3.5 mph - N/A   Mostly Cloudy
11:53 PM 55.9 °F 54.0 °F 93% 30.05 in 10.0 mi SE 3.5 mph - N/A   Mostly Cloudy